{"data":{"norad_id":45366,"intl_designator":"2020-019G","name":"STARLINK-1262","alt_names":[],"object_type":"PAYLOAD","status":"ACTIVE","operator":null,"country":"US","launch_date":"2020-03-18","launch_site_code":"AFETR","launch_vehicle":null,"mission":null,"orbit_class":"UNKNOWN","rcs_meters":null,"size_class":null,"mass_kg":null,"dimensions":null,"purposes":["comms"],"wikipedia_slug":null,"has_3d_model":false,"image_url":null,"decayed_at":null,"tle_current":{"epoch":"2026-05-25T01:54:52.527168Z","epoch_age_seconds":71188,"freshness":"FRESH","line1":"1 45366U 20019G   26145.07977462  .00031483  00000+0  99143-3 0  9993","line2":"2 45366  53.1537 170.1475 0003841  26.1644 333.9551 15.32669649341451","mean_motion":15.32669649,"eccentricity":0.0003841,"inclination_deg":53.1537,"raan_deg":170.1475,"arg_perigee_deg":26.1644,"mean_anomaly_deg":333.9551,"bstar":0.00099143,"rev_number":34145,"period_min":93.953710177502,"perigee_km":465.22150200203,"apogee_km":470.48059001897,"semimajor_km":6845.9880460105,"source":"CELESTRAK","updated_at":"2026-05-25T13:38:16.386946Z"}}}